FW9330 Weather Reports


time (UTC)temp
C
wind
direction
speed
KPH
gust
KPH
rain 1hr
cm
rain 24hr
cm
rain mn
cm
humidity
%
barometer
mb
20260504045332 2 270 0.0 0.0 0.00 0.00 0.00 81 1015.6
20260504044829 2 270 0.0 0.0 0.00 0.00 0.00 81 1015.7
20260504044327 2 270 0.0 0.0 0.00 0.00 0.00 80 1015.5
20260504043824 3 270 0.0 0.0 0.00 0.00 0.00 80 1015.6
20260504043321 3 270 0.0 0.0 0.00 0.00 0.00 79 1015.6
20260504042818 3 270 0.0 0.0 0.00 0.00 0.00 78 1015.6
20260504042314 3 270 0.0 0.0 0.00 0.00 0.00 76 1015.5
20260504041811 4 270 0.0 0.0 0.00 0.00 0.00 74 1015.5
20260504041307 4 270 0.0 0.0 0.00 0.00 0.00 73 1015.4
20260504040803 4 263 0.0 0.0 0.00 0.00 0.00 72 1015.4
20260504040301 4 265 0.0 0.0 0.00 0.00 0.00 72 1015.3
20260504035756 4 270 0.0 0.0 0.00 0.00 0.00 74 1015.3
20260504035254 4 269 0.0 0.0 0.00 0.00 0.00 73 1015.5
20260504034751 4 276 1.6 1.6 0.00 0.00 0.00 72 1015.8
20260504034249 3 265 0.0 0.0 0.00 0.00 0.00 76 1015.5
20260504033746 3 265 0.0 0.0 0.00 0.00 0.00 76 1015.6
20260504033243 3 265 0.0 0.0 0.00 0.00 0.00 76 1015.4
20260504032740 4 263 0.0 0.0 0.00 0.00 0.00 75 1015.5
20260504032237 4 265 0.0 0.0 0.00 0.00 0.00 74 1015.7
20260504031734 4 265 0.0 0.0 0.00 0.00 0.00 74 1015.4
20260504031232 5 267 0.0 0.0 0.00 0.00 0.00 73 1015.5
20260504030727 5 268 0.0 0.0 0.00 0.00 0.00 72 1015.6
20260504030225 5 268 0.0 0.0 0.00 0.00 0.00 72 1015.7
20260504025721 5 268 0.0 0.0 0.00 0.00 0.00 70 1015.8
20260504025218 5 268 0.0 0.0 0.00 0.00 0.00 70 1015.5
20260504024715 5 266 0.0 0.0 0.00 0.00 0.00 69 1015.6
20260504024211 5 266 0.0 0.0 0.00 0.00 0.00 69 1015.6
20260504023708 5 260 1.6 1.6 0.00 0.00 0.00 69 1015.7
20260504023204 5 267 0.0 0.0 0.00 0.00 0.00 70 1015.7
20260504022700 5 268 0.0 0.0 0.00 0.00 0.00 69 1015.7
20260504022156 5 273 3.2 3.2 0.00 0.00 0.00 70 1015.8
20260504021654 5 263 0.0 0.0 0.00 0.00 0.00 71 1015.7
20260504021151 5 263 0.0 0.0 0.00 0.00 0.00 72 1015.7
20260504020648 5 263 0.0 0.0 0.00 0.00 0.00 70 1015.6
20260504020143 5 264 0.0 0.0 0.00 0.00 0.00 69 1016.0
20260504015641 5 263 0.0 0.0 0.00 0.00 0.00 68 1015.8
20260504015137 6 264 0.0 0.0 0.00 0.00 0.00 69 1015.7
20260504014632 6 264 0.0 0.0 0.00 0.00 0.00 68 1015.8
20260504014130 6 260 0.0 0.0 0.00 0.00 0.00 66 1015.5
20260504013628 6 261 0.0 0.0 0.00 0.00 0.00 68 1015.6
20260504013124 6 261 0.0 0.0 0.00 0.00 0.00 66 1015.6
20260504012622 6 260 0.0 0.0 0.00 0.00 0.00 66 1015.5
20260504012120 6 262 0.0 0.0 0.00 0.00 0.00 66 1015.6
20260504011616 6 263 0.0 0.0 0.00 0.00 0.00 66 1015.3
20260504011113 7 261 0.0 0.0 0.00 0.00 0.00 64 1015.4
20260504010608 7 260 0.0 0.0 0.00 0.00 0.00 63 1015.5
20260504010105 7 257 1.6 1.6 0.00 0.00 0.00 61 1015.4
20260504005601 7 252 0.0 0.0 0.00 0.00 0.00 62 1015.5
20260504005059 7 264 0.0 0.0 0.00 0.00 0.00 61 1015.5
20260504004556 8 262 0.0 0.0 0.00 0.00 0.00 60 1015.5
20260504004053 8 260 0.0 0.0 0.00 0.00 0.00 59 1015.5
20260504003549 8 267 0.0 0.0 0.00 0.00 0.00 57 1015.3
20260504003046 8 267 1.6 1.6 0.00 0.00 0.00 55 1015.4
20260504002543 8 275 1.6 1.6 0.00 0.00 0.00 55 1015.4
20260504002041 8 275 0.0 1.6 0.00 0.00 0.00 56 1015.5
20260504001538 8 269 1.6 1.6 0.00 0.00 0.00 54 1015.4
20260504001034 9 204 3.2 4.8 0.00 0.00 0.00 54 1015.2
20260504000531 9 245 1.6 1.6 0.00 0.00 0.00 54 1015.2
20260504000029 9 249 1.6 3.2 0.00 0.00 0.00 53 1015.2
20260503235527 9 270 1.6 3.2 0.00 0.00 0.00 53 1015.1
20260503235023 9 277 1.6 3.2 0.00 0.00 0.00 52 1015.3
20260503234521 10 177 3.2 4.8 0.00 0.00 0.00 53 1015.3
20260503234019 10 187 4.8 8.0 0.00 0.00 0.00 52 1015.3
20260503233515 10 186 4.8 4.8 0.00 0.00 0.00 51 1015.1
20260503233011 10 277 4.8 8.0 0.00 0.00 0.00 51 1015.1
20260503232509 10 273 1.6 3.2 0.00 0.00 0.00 51 1015.0
20260503232006 10 280 0.0 1.6 0.00 0.00 0.00 50 1015.0
20260503231504 10 282 4.8 8.0 0.00 0.00 0.00 50 1015.0
20260503231000 10 266 1.6 1.6 0.00 0.00 0.00 52 1015.2
20260503230457 10 260 3.2 3.2 0.00 0.00 0.00 50 1015.2
20260503225954 10 206 4.8 4.8 0.00 0.00 0.00 50 1015.3
20260503225451 11 265 3.2 4.8 0.00 0.00 0.00 49 1015.3
20260503224946 11 268 3.2 3.2 0.00 0.00 0.00 49 1015.2
20260503224444 10 274 8.0 11.3 0.00 0.00 0.00 49 1015.4
20260503223941 10 267 4.8 11.3 0.00 0.00 0.00 49 1015.4
20260503223439 11 276 1.6 1.6 0.00 0.00 0.00 48 1015.3
20260503222934 11 251 3.2 3.2 0.00 0.00 0.00 48 1015.3
20260503222433 11 227 6.4 8.0 0.00 0.00 0.00 46 1015.2
20260503221931 12 284 1.6 3.2 0.00 0.00 0.00 45 1015.1
20260503221429 12 283 6.4 9.7 0.00 0.00 0.00 46 1015.3
20260503220926 11 269 1.6 3.2 0.00 0.00 0.00 47 1015.2
20260503220422 12 194 4.8 4.8 0.00 0.00 0.00 46 1015.2
20260503215919 12 270 1.6 3.2 0.00 0.00 0.00 47 1015.3
20260503215416 11 253 3.2 3.2 0.00 0.00 0.00 47 1015.2
20260503214914 12 211 4.8 8.0 0.00 0.00 0.00 46 1015.1
20260503214411 11 269 3.2 3.2 0.00 0.00 0.00 48 1015.4
20260503213908 11 231 8.0 11.3 0.00 0.00 0.00 46 1015.4
20260503213406 11 272 3.2 3.2 0.00 0.00 0.00 46 1015.1
20260503212902 11 215 3.2 3.2 0.00 0.00 0.00 47 1015.3
20260503212400 11 103 4.8 9.7 0.00 0.00 0.00 47 1015.3
20260503211857 11 266 0.0 0.0 0.00 0.00 0.00 47 1015.2
20260503211354 11 217 1.6 3.2 0.00 0.00 0.00 48 1015.4
20260503210849 11 268 3.2 3.2 0.00 0.00 0.00 47 1015.5
20260503210347 11 266 6.4 11.3 0.00 0.00 0.00 47 1015.4
20260503205841 12 256 3.2 3.2 0.00 0.00 0.00 45 1015.5
20260503205338 11 184 3.2 4.8 0.00 0.00 0.00 46 1015.4
20260503204835 11 253 4.8 8.0 0.00 0.00 0.00 47 1015.3
20260503204332 11 208 1.6 3.2 0.00 0.00 0.00 48 1015.6
20260503203829 11 256 8.0 12.9 0.00 0.00 0.00 47 1015.5
20260503203327 11 246 4.8 4.8 0.00 0.00 0.00 46 1015.3
20260503202824 11 248 4.8 8.0 0.00 0.00 0.00 47 1015.8
20260503202322 11 275 1.6 1.6 0.00 0.00 0.00 47 1015.5
20260503201820 11 289 3.2 4.8 0.00 0.00 0.00 47 1015.5
20260503201316 11 190 3.2 4.8 0.00 0.00 0.00 46 1015.8
20260503200814 11 262 4.8 8.0 0.00 0.00 0.00 47 1015.7
20260503200309 10 199 6.4 8.0 0.00 0.00 0.00 47 1015.6
20260503195807 11 298 3.2 3.2 0.00 0.00 0.00 47 1015.7
20260503195304 11 357 3.2 4.8 0.00 0.00 0.00 47 1015.7
20260503194801 11 276 1.6 3.2 0.00 0.00 0.00 49 1015.9
20260503194256 12 226 4.8 4.8 0.00 0.00 0.00 46 1015.8
20260503193753 11 211 3.2 4.8 0.00 0.00 0.00 46 1016.0
20260503193249 11 266 4.8 4.8 0.00 0.00 0.00 45 1016.2
20260503192745 12 143 4.8 8.0 0.00 0.00 0.00 45 1016.1
20260503192240 12 269 6.4 11.3 0.00 0.00 0.00 44 1016.4
20260503191737 11 278 3.2 3.2 0.00 0.00 0.00 49 1016.1
20260503191234 10 295 3.2 4.8 0.00 0.00 0.00 48 1016.2
20260503190731 11 280 3.2 4.8 0.00 0.00 0.00 45 1016.2
20260503190228 11 138 3.2 9.7 0.00 0.00 0.00 46 1016.5
20260503185725 10 237 1.6 3.2 0.00 0.00 0.00 48 1016.4
20260503185220 10 238 3.2 4.8 0.00 0.00 0.00 49 1016.4
20260503184715 10 301 0.0 1.6 0.00 0.00 0.00 49 1016.7
20260503184212 10 314 4.8 8.0 0.00 0.00 0.00 47 1016.4
20260503183708 11 250 8.0 11.3 0.00 0.00 0.00 46 1016.7
20260503183206 11 193 4.8 9.7 0.00 0.00 0.00 50 1016.8
20260503182704 10 244 4.8 8.0 0.00 0.00 0.00 46 1016.8
20260503182202 11 280 4.8 4.8 0.00 0.00 0.00 47 1016.7
20260503181658 11 253 8.0 11.3 0.00 0.00 0.00 46 1016.8
20260503181155 10 182 6.4 9.7 0.00 0.00 0.00 48 1016.7
20260503180652 11 320 3.2 3.2 0.00 0.00 0.00 50 1017.0
20260503180150 11 11 3.2 4.8 0.00 0.00 0.00 49 1016.8
20260503175647 10 270 6.4 8.0 0.00 0.00 0.00 48 1017.1
20260503175144 10 315 4.8 8.0 0.00 0.00 0.00 47 1016.9
20260503174640 10 133 1.6 3.2 0.00 0.00 0.00 47 1017.0
20260503174138 10 310 4.8 4.8 0.00 0.00 0.00 50 1017.0
20260503173632 10 337 8.0 12.9 0.00 0.00 0.00 48 1016.8
20260503173129 10 288 3.2 4.8 0.00 0.00 0.00 50 1017.1
20260503172626 10 320 8.0 11.3 0.00 0.00 0.00 49 1017.1
20260503172124 10 258 6.4 9.7 0.00 0.00 0.00 48 1017.1
20260503171620 10 284 4.8 8.0 0.00 0.00 0.00 51 1017.1
20260503171117 10 144 4.8 8.0 0.00 0.00 0.00 51 1017.4
20260503170615 10 274 6.4 9.7 0.00 0.00 0.00 51 1017.2
20260503170111 10 347 8.0 11.3 0.00 0.00 0.00 50 1017.1
20260503151006 7 244 6.4 9.7 0.00 0.00 0.00 57 1017.7
20260503150503 7 321 8.0 9.7 0.00 0.00 0.00 60 1017.8
20260503131356 4 284 3.2 3.2 0.00 0.00 0.00 76 1017.7
20260503130853 4 291 8.0 9.7 0.00 0.00 0.00 76 1017.8
20260503130350 3 289 0.0 1.6 0.00 0.00 0.00 77 1017.8
20260503110744 -1 255 0.0 1.6 0.00 0.00 0.00 94 1017.0
20260503110241 -1 269 0.0 0.0 0.00 0.00 0.00 94 1017.0
20260503100207 -1 261 1.6 1.6 0.00 0.00 0.00 95 1016.6
20260503090132 -1 267 0.0 0.0 0.00 0.00 0.00 93 1016.2
20260503081602 -1 256 0.0 1.6 0.00 0.00 0.00 93 1015.9
20260503081059 -1 262 0.0 0.0 0.00 0.00 0.00 92 1016.1
20260503080555 -1 267 0.0 0.0 0.00 0.00 0.00 92 1016.0
20260503072529 0 253 1.6 1.6 0.00 0.00 0.00 90 1015.6
20260503072026 0 256 0.0 1.6 0.00 0.00 0.00 90 1015.7
20260503071523 0 255 0.0 0.0 0.00 0.00 0.00 89 1015.8
20260503071020 0 249 1.6 3.2 0.00 0.00 0.00 89 1015.6
20260503070516 0 270 1.6 3.2 0.00 0.00 0.00 89 1015.7
20260503054940 0 266 1.6 1.6 0.00 0.00 0.00 88 1016.0
20260503054436 0 249 1.6 1.6 0.00 0.00 0.00 88 1015.8
20260503053934 0 253 0.0 0.0 0.00 0.00 0.00 88 1015.5
20260503053432 0 259 0.0 0.0 0.00 0.00 0.00 88 1015.8
20260503052928 0 211 4.8 4.8 0.00 0.00 0.00 88 1015.7
20260503052425 0 258 0.0 0.0 0.00 0.00 0.00 88 1015.8
20260503051921 0 254 0.0 1.6 0.00 0.00 0.00 88 1015.9
20260503051417 0 267 1.6 3.2 0.00 0.00 0.00 88 1015.9
20260503050915 0 257 0.0 1.6 0.00 0.00 0.00 88 1016.0
20260503050410 0 257 1.6 1.6 0.00 0.00 0.00 88 1015.9
20260503045908 0 286 1.6 1.6 0.00 0.00 0.00 88 1016.0